Time,TemperatureF,DewpointF,PressureIn,WindDirection,WindDirectionDegrees,WindSpeedMPH,WindSpeedGustMPH,Humidity,HourlyPrecipIn,Conditions,Clouds,dailyrainin,SoftwareType,DateUTC
2013-02-28 00:12:00,46.4,1.0,30.37,West,277,5.0,6.0,15,0.00,,,0.00,weatherlink.com 1.10,2013-02-28 08:12:00,
2013-02-28 00:28:00,46.8,1.0,30.36,West,277,0.0,5.0,15,0.00,,,0.00,weatherlink.com 1.10,2013-02-28 08:28:00,
2013-02-28 00:44:00,42.3,3.0,30.36,West,277,1.0,2.0,19,0.00,,,0.00,weatherlink.com 1.10,2013-02-28 08:44:00,
2013-02-28 00:59:00,40.2,2.0,30.37,West,277,0.0,0.0,20,0.00,,,0.00,weatherlink.com 1.10,2013-02-28 08:59:00,
2013-02-28 01:15:00,39.3,4.0,30.37,West,277,1.0,2.0,22,0.00,,,0.00,weatherlink.com 1.10,2013-02-28 09:15:00,
2013-02-28 01:31:00,39.6,4.0,30.37,West,277,0.0,4.0,22,0.00,,,0.00,weatherlink.com 1.10,2013-02-28 09:31:00,
2013-02-28 01:47:00,43.8,3.0,30.37,West,277,0.0,4.0,18,0.00,,,0.00,weatherlink.com 1.10,2013-02-28 09:47:00,
2013-02-28 02:03:00,45.7,3.0,30.37,West,277,0.0,4.0,17,0.00,,,0.00,weatherlink.com 1.10,2013-02-28 10:03:00,
2013-02-28 02:18:00,42.8,4.0,30.37,West,277,1.0,2.0,20,0.00,,,0.00,weatherlink.com 1.10,2013-02-28 10:18:00,
2013-02-28 02:34:00,39.6,4.0,30.37,West,277,0.0,2.0,22,0.00,,,0.00,weatherlink.com 1.10,2013-02-28 10:34:00,
2013-02-28 02:50:00,38.6,4.0,30.37,West,277,0.0,2.0,23,0.00,,,0.00,weatherlink.com 1.10,2013-02-28 10:50:00,
2013-02-28 03:06:00,38.2,5.0,30.37,West,277,0.0,0.0,24,0.00,,,0.00,weatherlink.com 1.10,2013-02-28 11:06:00,
2013-02-28 03:22:00,37.6,4.0,30.36,West,277,1.0,3.0,24,0.00,,,0.00,weatherlink.com 1.10,2013-02-28 11:22:00,
2013-02-28 03:37:00,37.3,5.0,30.37,West,277,0.0,1.0,26,0.00,,,0.00,weatherlink.com 1.10,2013-02-28 11:37:00,
2013-02-28 03:53:00,37.9,7.0,30.37,West,277,0.0,0.0,27,0.00,,,0.00,weatherlink.com 1.10,2013-02-28 11:53:00,
2013-02-28 04:09:00,37.9,8.0,30.37,West,277,0.0,0.0,28,0.00,,,0.00,weatherlink.com 1.10,2013-02-28 12:09:00,
2013-02-28 04:25:00,37.0,7.0,30.37,West,277,0.0,0.0,28,0.00,,,0.00,weatherlink.com 1.10,2013-02-28 12:25:00,
2013-02-28 04:41:00,35.9,6.0,30.37,West,277,0.0,1.0,28,0.00,,,0.00,weatherlink.com 1.10,2013-02-28 12:41:00,
2013-02-28 04:56:00,35.3,6.0,30.38,West,277,0.0,4.0,29,0.00,,,0.00,weatherlink.com 1.10,2013-02-28 12:56:00,
2013-02-28 05:12:00,35.6,6.0,30.38,West,277,0.0,0.0,29,0.00,,,0.00,weatherlink.com 1.10,2013-02-28 13:12:00,
2013-02-28 05:28:00,35.3,6.0,30.39,West,277,0.0,2.0,29,0.00,,,0.00,weatherlink.com 1.10,2013-02-28 13:28:00,
2013-02-28 05:43:00,34.9,6.0,30.39,West,277,0.0,4.0,29,0.00,,,0.00,weatherlink.com 1.10,2013-02-28 13:43:00,
2013-02-28 05:59:00,34.7,6.0,30.39,West,277,0.0,2.0,29,0.00,,,0.00,weatherlink.com 1.10,2013-02-28 13:59:00,
2013-02-28 06:15:00,35.3,5.0,30.39,West,277,0.0,4.0,28,0.00,,,0.00,weatherlink.com 1.10,2013-02-28 14:15:00,
2013-02-28 06:31:00,35.6,6.0,30.39,West,277,0.0,1.0,28,0.00,,,0.00,weatherlink.com 1.10,2013-02-28 14:31:00,
2013-02-28 06:47:00,36.0,7.0,30.39,West,277,0.0,0.0,29,0.00,,,0.00,weatherlink.com 1.10,2013-02-28 14:47:00,
2013-02-28 07:03:00,38.3,8.0,30.40,West,277,0.0,0.0,28,0.00,,,0.00,weatherlink.com 1.10,2013-02-28 15:03:00,
2013-02-28 07:19:00,41.2,10.0,30.41,West,277,0.0,4.0,27,0.00,,,0.00,weatherlink.com 1.10,2013-02-28 15:19:00,
2013-02-28 07:34:00,43.3,12.0,30.42,West,277,0.0,0.0,28,0.00,,,0.00,weatherlink.com 1.10,2013-02-28 15:34:00,
2013-02-28 07:50:00,44.9,10.0,30.42,West,277,0.0,0.0,24,0.00,,,0.00,weatherlink.com 1.10,2013-02-28 15:50:00,
2013-02-28 08:06:00,46.2,10.0,30.43,West,277,0.0,0.0,23,0.00,,,0.00,weatherlink.com 1.10,2013-02-28 16:06:00,
2013-02-28 08:21:00,47.6,10.0,30.44,West,277,0.0,0.0,21,0.00,,,0.00,weatherlink.com 1.10,2013-02-28 16:21:00,
2013-02-28 08:37:00,48.6,10.0,30.44,West,277,0.0,0.0,21,0.00,,,0.00,weatherlink.com 1.10,2013-02-28 16:37:00,
2013-02-28 08:53:00,50.1,11.0,30.43,West,277,0.0,0.0,20,0.00,,,0.00,weatherlink.com 1.10,2013-02-28 16:53:00,
2013-02-28 09:09:00,51.0,10.0,30.44,West,277,0.0,1.0,19,0.00,,,0.00,weatherlink.com 1.10,2013-02-28 17:09:00,
2013-02-28 09:25:00,52.0,8.0,30.44,West,277,0.0,2.0,17,0.00,,,0.00,weatherlink.com 1.10,2013-02-28 17:25:00,
2013-02-28 09:41:00,53.2,9.0,30.44,West,277,0.0,2.0,17,0.00,,,0.00,weatherlink.com 1.10,2013-02-28 17:41:00,
2013-02-28 09:56:00,54.5,8.0,30.43,West,277,0.0,2.0,15,0.00,,,0.00,weatherlink.com 1.10,2013-02-28 17:56:00,
2013-02-28 10:12:00,54.5,8.0,30.43,West,277,1.0,4.0,15,0.00,,,0.00,weatherlink.com 1.10,2013-02-28 18:12:00,
2013-02-28 10:28:00,55.3,8.0,30.43,West,277,1.0,5.0,15,0.00,,,0.00,weatherlink.com 1.10,2013-02-28 18:28:00,
2013-02-28 10:44:00,56.0,9.0,30.43,West,277,0.0,6.0,15,0.00,,,0.00,weatherlink.com 1.10,2013-02-28 18:44:00,
2013-02-28 11:00:00,56.6,9.0,30.43,West,277,0.0,5.0,15,0.00,,,0.00,weatherlink.com 1.10,2013-02-28 19:00:00,
2013-02-28 11:16:00,57.3,8.0,30.43,West,277,0.0,5.0,14,0.00,,,0.00,weatherlink.com 1.10,2013-02-28 19:16:00,
2013-02-28 11:31:00,57.2,7.0,30.43,West,277,0.0,5.0,13,0.00,,,0.00,weatherlink.com 1.10,2013-02-28 19:31:00,
2013-02-28 11:47:00,58.1,9.0,30.42,West,277,0.0,5.0,14,0.00,,,0.00,weatherlink.com 1.10,2013-02-28 19:47:00,
2013-02-28 12:03:00,59.5,10.0,30.41,West,277,1.0,5.0,14,0.00,,,0.00,weatherlink.com 1.10,2013-02-28 20:03:00,
2013-02-28 12:19:00,60.4,9.0,30.41,West,277,4.0,4.0,13,0.00,,,0.00,weatherlink.com 1.10,2013-02-28 20:19:00,
2013-02-28 12:34:00,59.6,9.0,30.40,West,277,0.0,3.0,13,0.00,,,0.00,weatherlink.com 1.10,2013-02-28 20:34:00,
2013-02-28 12:50:00,60.9,8.0,30.39,West,277,0.0,5.0,12,0.00,,,0.00,weatherlink.com 1.10,2013-02-28 20:50:00,
2013-02-28 13:06:00,60.5,6.0,30.38,West,277,0.0,4.0,11,0.00,,,0.00,weatherlink.com 1.10,2013-02-28 21:06:00,
2013-02-28 13:22:00,62.4,9.0,30.37,West,277,1.0,4.0,12,0.00,,,0.00,weatherlink.com 1.10,2013-02-28 21:22:00,
2013-02-28 13:37:00,62.1,9.0,30.36,West,277,3.0,4.0,12,0.00,,,0.00,weatherlink.com 1.10,2013-02-28 21:37:00,
2013-02-28 13:53:00,62.6,7.0,30.36,West,277,5.0,5.0,11,0.00,,,0.00,weatherlink.com 1.10,2013-02-28 21:53:00,
2013-02-28 14:09:00,62.9,7.0,30.36,West,277,0.0,5.0,11,0.00,,,0.00,weatherlink.com 1.10,2013-02-28 22:09:00,
2013-02-28 14:25:00,64.8,7.0,30.35,West,277,0.0,4.0,10,0.00,,,0.00,weatherlink.com 1.10,2013-02-28 22:25:00,
2013-02-28 14:40:00,63.4,8.0,30.35,West,277,0.0,5.0,11,0.00,,,0.00,weatherlink.com 1.10,2013-02-28 22:40:00,
2013-02-28 14:56:00,64.7,7.0,30.35,West,277,0.0,4.0,10,0.00,,,0.00,weatherlink.com 1.10,2013-02-28 22:56:00,
2013-02-28 15:12:00,64.2,6.0,30.35,West,277,1.0,4.0,10,0.00,,,0.00,weatherlink.com 1.10,2013-02-28 23:12:00,
2013-02-28 15:28:00,64.5,7.0,30.34,West,277,0.0,4.0,10,0.00,,,0.00,weatherlink.com 1.10,2013-02-28 23:28:00,
2013-02-28 15:44:00,64.7,7.0,30.34,West,277,1.0,5.0,10,0.00,,,0.00,weatherlink.com 1.10,2013-02-28 23:44:00,
2013-02-28 16:00:00,64.0,8.0,30.32,West,277,0.0,5.0,11,0.00,,,0.00,weatherlink.com 1.10,2013-03-01 00:00:00,
2013-02-28 16:15:00,63.1,8.0,30.32,West,277,0.0,4.0,11,0.00,,,0.00,weatherlink.com 1.10,2013-03-01 00:15:00,
2013-02-28 16:31:00,62.6,7.0,30.32,West,277,0.0,2.0,11,0.00,,,0.00,weatherlink.com 1.10,2013-03-01 00:31:00,
2013-02-28 16:47:00,61.3,8.0,30.32,West,277,0.0,1.0,12,0.00,,,0.00,weatherlink.com 1.10,2013-03-01 00:47:00,
2013-02-28 17:02:00,60.7,8.0,30.32,West,277,0.0,2.0,12,0.00,,,0.00,weatherlink.com 1.10,2013-03-01 01:02:00,
2013-02-28 17:18:00,59.5,9.0,30.32,West,277,0.0,0.0,13,0.00,,,0.00,weatherlink.com 1.10,2013-03-01 01:18:00,
2013-02-28 17:34:00,58.3,9.0,30.32,West,277,0.0,0.0,14,0.00,,,0.00,weatherlink.com 1.10,2013-03-01 01:34:00,
2013-02-28 17:50:00,55.7,9.0,30.32,West,277,0.0,0.0,15,0.00,,,0.00,weatherlink.com 1.10,2013-03-01 01:50:00,
2013-02-28 18:06:00,54.4,10.0,30.33,West,277,0.0,0.0,17,0.00,,,0.00,weatherlink.com 1.10,2013-03-01 02:06:00,
2013-02-28 18:21:00,53.3,11.0,30.34,West,277,0.0,0.0,18,0.00,,,0.00,weatherlink.com 1.10,2013-03-01 02:21:00,
2013-02-28 18:37:00,52.5,10.0,30.34,West,277,0.0,2.0,18,0.00,,,0.00,weatherlink.com 1.10,2013-03-01 02:37:00,
2013-02-28 18:53:00,52.3,10.0,30.34,West,277,0.0,0.0,18,0.00,,,0.00,weatherlink.com 1.10,2013-03-01 02:53:00,
2013-02-28 19:09:00,56.6,9.0,30.34,West,277,2.0,7.0,15,0.00,,,0.00,weatherlink.com 1.10,2013-03-01 03:09:00,
2013-02-28 19:24:00,57.0,10.0,30.34,West,277,0.0,4.0,15,0.00,,,0.00,weatherlink.com 1.10,2013-03-01 03:24:00,
2013-02-28 19:40:00,57.2,10.0,30.34,West,277,0.0,5.0,15,0.00,,,0.00,weatherlink.com 1.10,2013-03-01 03:40:00,
2013-02-28 19:56:00,57.5,9.0,30.35,West,277,2.0,6.0,14,0.00,,,0.00,weatherlink.com 1.10,2013-03-01 03:56:00,
2013-02-28 20:12:00,56.7,9.0,30.35,West,277,4.0,5.0,15,0.00,,,0.00,weatherlink.com 1.10,2013-03-01 04:12:00,
2013-02-28 20:27:00,57.0,8.0,30.35,West,277,0.0,4.0,14,0.00,,,0.00,weatherlink.com 1.10,2013-03-01 04:27:00,
2013-02-28 20:43:00,56.6,8.0,30.35,West,277,0.0,5.0,14,0.00,,,0.00,weatherlink.com 1.10,2013-03-01 04:43:00,
2013-02-28 20:59:00,57.0,8.0,30.35,West,277,0.0,4.0,14,0.00,,,0.00,weatherlink.com 1.10,2013-03-01 04:59:00,
2013-02-28 21:15:00,54.7,9.0,30.36,West,277,1.0,2.0,16,0.00,,,0.00,weatherlink.com 1.10,2013-03-01 05:15:00,
2013-02-28 21:31:00,57.2,8.0,30.37,West,277,4.0,5.0,14,0.00,,,0.00,weatherlink.com 1.10,2013-03-01 05:31:00,
2013-02-28 21:46:00,57.2,8.0,30.37,West,277,1.0,4.0,14,0.00,,,0.00,weatherlink.com 1.10,2013-03-01 05:46:00,
2013-02-28 22:02:00,54.8,9.0,30.37,West,277,0.0,0.0,16,0.00,,,0.00,weatherlink.com 1.10,2013-03-01 06:02:00,
2013-02-28 22:18:00,50.1,9.0,30.37,West,277,0.0,2.0,19,0.00,,,0.00,weatherlink.com 1.10,2013-03-01 06:18:00,
2013-02-28 22:34:00,47.4,9.0,30.38,West,277,1.0,2.0,21,0.00,,,0.00,weatherlink.com 1.10,2013-03-01 06:34:00,
2013-02-28 22:49:00,46.5,10.0,30.38,West,277,0.0,0.0,22,0.00,,,0.00,weatherlink.com 1.10,2013-03-01 06:49:00,
2013-02-28 23:05:00,46.5,11.0,30.38,West,277,0.0,1.0,23,0.00,,,0.00,weatherlink.com 1.10,2013-03-01 07:05:00,
2013-02-28 23:21:00,52.5,10.0,30.38,West,277,5.0,7.0,18,0.00,,,0.00,weatherlink.com 1.10,2013-03-01 07:21:00,
2013-02-28 23:37:00,53.5,10.0,30.38,West,277,4.0,4.0,17,0.00,,,0.00,weatherlink.com 1.10,2013-03-01 07:37:00,
2013-02-28 23:53:00,51.0,10.0,30.38,West,277,0.0,2.0,19,0.00,,,0.00,weatherlink.com 1.10,2013-03-01 07:53:00,